Location: JKWMA (FRAC)
(33.1803°N, 84.5512°W)
Time: 11:33:56
(UTC-04:00)

Envisat - Visible Passes

Search period start: 14 October 2019 00:00
Search period end: 24 October 2019 00:00
Orbit: 764 x 766 km, 98.1° (Epoch: 14 October)

Date Brightness Start Highest point End Pass type
(mag) Time Alt. Az. Time Alt. Az. Time Alt. Az.
14 Oct 4.7 20:31:27 10° SSW 20:36:00 34° W 20:40:35 10° NNW visible
15 Oct 3.1 19:54:06 10° S 19:59:10 83° WSW 20:04:17 10° NNW visible
16 Oct 5.7 20:58:13 10° SW 21:01:39 18° W 21:05:05 10° NW visible
17 Oct 4.2 20:19:53 10° S 20:24:42 44° W 20:29:32 10° NNW visible
18 Oct 2.9 19:42:53 10° SSE 19:47:56 76° ENE 19:53:00 10° N visible
19 Oct 5.3 20:46:18 10° SSW 20:50:19 24° W 20:54:20 10° NW visible
20 Oct 6.3 07:21:10 10° ENE 07:24:04 15° E 07:26:59 10° SE visible
20 Oct 3.7 20:08:27 10° S 20:13:24 57° W 20:18:25 10° NNW visible
21 Oct 3.0 19:31:44 10° SSE 19:36:42 59° ENE 19:41:41 10° N visible
21 Oct 6.1 21:13:59 10° WSW 21:16:01 12° W 21:18:03 10° WNW visible
22 Oct 4.9 20:34:34 10° SSW 20:38:59 30° W 20:43:27 10° NW visible
23 Oct 6.7 07:11:09 10° ENE 07:12:43 11° E 07:14:17 10° ESE visible
23 Oct 3.2 19:57:05 10° S 20:02:09 75° WSW 20:07:14 10° NNW visible
